Temp
6 5 5 5 5 6 6 6 6 6 6 6 6 6 6 6 7 7 7 7 7 7 7 7 6 6 6 6 5 6 6 6 5 5 5 5 4 3 2 2 3 3 3 3 3 3 3
5 6 5 5 5 5 6 6 6 6 6 6 6 6 6 6 6 6 6 7 7 7 6 7 6 6 6 5 5 5 5 5 5 5 4 4 4 2 1 2 2 3 3 2 2 2 2
5 5 5 5 5 5 5 5 5 5 5 5 5 5 5 6 6 6 6 6 6 6 6 6 6 6 5 5 5 4 4 4 4 4 4 4 4 2 2 2 2 1 1 1 1 1 1
5 5 5 5 5 5 5 5 5 5 5 5 5 5 5 5 5 5 5 5 6 6 6 6 5 5 5 5 4 4 4 4 5 4 4 3 3 2 2 1 1 -0 -0 -1 -0 0 -0
5 5 5 5 4 4 4 4 4 4 5 5 5 5 5 5 5 5 5 5 5 5 5 5 5 5 4 4 4 4 4 4 4 4 4 3 2 2 1 1 -1 -2 -1 -1 -1 -1 -0
4 4 4 4 4 4 4 4 4 4 4 4 4 4 4 4 4 4 4 4 4 5 5 4 4 4 4 4 4 4 4 4 4 4 3 3 2 1 0 -2 -0 -0 -0 -1 -2 -0 -1
4 4 4 4 4 4 4 4 4 4 4 4 3 3 3 3 3 3 4 4 4 4 4 4 4 4 3 3 3 4 4 3 3 3 3 2 1 -1 -1 -0 -0 0 -0 -1 -2 -1 -1
3 3 3 3 3 3 3 3 3 3 3 3 3 3 3 3 3 3 3 3 3 3 3 4 4 3 3 3 3 3 3 3 3 2 2 1 -0 1 1 1 0 -0 -0 -1 -2 -1 -1
2 2 2 2 2 3 3 3 3 2 2 2 2 2 2 2 2 2 2 2 2 2 2 3 2 2 2 2 2 2 2 2 2 2 1 0 2 1 0 0 -0 -1 -1 -2 -2 -1 -2
2 2 2 2 2 2 2 2 2 2 2 2 2 2 2 2 2 2 1 1 2 2 2 1 1 1 1 1 1 2 2 2 1 1 1 0 1 -0 -0 -0 -1 -2 -1 -2 -3 -3 -5
2 2 2 1 2 2 2 2 1 1 1 1 1 2 2 2 1 1 1 1 1 1 -1 1 1 2 1 1 1 1 1 1 1 1 -0 -0 -0 -1 -2 -1 -2 -2 -3 -3 -4 -5 -7
1 1 1 1 1 1 1 1 1 1 1 1 1 1 1 0 1 0 0 0 0 1 -0 1 1 2 2 1 1 1 1 1 0 -0 -1 -1 -1 -2 -2 -2 -3 -3 -4 -5 -6 -8 -10
1 1 1 1 1 1 1 0 1 1 0 1 0 -0 0 -0 -0 -0 0 -0 -0 0 2 1 2 2 2 2 2 1 1 0 -0 -1 -1 -2 -3 -2 -3 -4 -4 -5 -5 -7 -8 -10 -9
1 1 1 1 1 0 1 0 0 0 0 0 -0 -1 -0 -1 -1 -1 -1 -1 -1 1 1 2 1 1 1 1 1 1 0 -0 -1 -2 -3 -3 -5 -2 -4 -5 -5 -5 -6 -6 -8 -8 -9
1 1 0 0 0 0 0 0 0 -0 -0 -0 -1 -0 -1 -1 -1 -2 -1 -2 -0 0 1 1 0 0 0 0 -2 -1 -1 -1 -2 -2 -3 -3 -5 -4 -4 -6 -6 -8 -8 -6 -7 -6 -9
1 1 1 0 1 0 -0 -0 -0 -1 -1 -1 -1 -0 -1 -1 -1 -1 -1 -2 -2 -1 -1 -1 -1 -1 -2 -2 -2 -2 -1 -2 -3 -3 -3 -4 -5 -6 -6 -6 -7 -8 -8 -9 -8 -12 -11
1 2 1 1 -0 0 -0 -0 -1 -1 -1 -1 -1 -1 -1 -1 -2 -2 -2 -2 -2 -2 -2 -3 -3 -3 -3 -4 -4 -4 -3 -3 -2 -2 -3 -4 -5 -9 -8 -7 -7 -8 -9 -9 -8 -8 -13
2 2 2 1 1 -0 -1 -1 -1 -1 -1 -1 -2 -1 -1 -1 -2 -2 -2 -2 -2 -2 -3 -3 -4 -4 -4 -5 -6 -6 -5 -5 -4 -3 -4 -5 -7 -8 -8 -7 -8 -8 -9 -9 -8 -9 -10
2 2 2 1 1 0 -1 -0 -1 -1 -2 -1 -1 -2 -1 -2 -2 -2 -2 -2 -3 -3 -3 -3 -4 -4 -4 -5 -7 -6 -7 -6 -6 -6 -6 -6 -7 -8 -9 -9 -9 -10 -10 -10 -9 -10 -11
2 2 2 2 1 0 -1 -1 -1 -1 -1 -1 -1 -2 -2 -2 -2 -3 -3 -3 -3 -3 -3 -3 -4 -3 -4 -5 -6 -7 -7 -7 -7 -7 -8 -8 -7 -7 -6 -7 -8 -8 -7 -8 -10 -12 -11
2 2 1 1 1 0 -0 -1 -1 -2 -2 -2 -2 -2 -2 -2 -2 -3 -3 -4 -3 -3 -3 -3 -4 -3 -5 -6 -6 -7 -7 -8 -9 -9 -9 -9 -10 -9 -8 -8 -8 -9 -10 -10 -10 -8 -11
1 1 1 1 1 0 -0 -1 -2 -2 -2 -2 -2 -2 -2 -2 -3 -3 -3 -3 -3 -3 -4 -4 -4 -5 -6 -6 -7 -8 -8 -8 -9 -10 -10 -11 -11 -11 -11 -10 -10 -9 -10 -11 -12 -12 -11
1 1 1 1 0 0 -0 -3 -3 -2 -2 -2 -2 -2 -2 -3 -3 -3 -3 -3 -3 -4 -4 -4 -4 -5 -5 -6 -7 -8 -9 -9 -10 -10 -12 -13 -13 -13 -13 -11 -11 -12 -10 -9 -9 -9 -10
0 0 1 0 0 0 -0 -1 -2 -2 -2 -3 -3 -3 -3 -4 -4 -4 -4 -4 -4 -4 -5 -5 -5 -5 -6 -7 -8 -9 -10 -10 -11 -11 -12 -13 -14 -14 -14 -13 -15 -11 -11 -11 -10 -10 -11
0 0 0 0 1 0 -0 0 -1 -1 -3 -3 -4 -4 -4 -4 -5 -5 -5 -5 -5 -6 -6 -7 -7 -7 -7 -7 -10 -11 -11 -12 -12 -12 -14 -15 -15 -15 -14 -14 -11 -12 -11 -11 -11 -11 -11
-0 -0 0 0 1 0 0 -0 -0 -1 -2 -3 -3 -6 -6 -5 -5 -5 -6 -7 -7 -7 -7 -6 -7 -7 -8 -10 -11 -12 -11 -12 -13 -14 -14 -16 -16 -16 -16 -16 -17 -13 -12 -12 -12 -13 -12
-1 -0 -0 0 0 0 -0 -1 -0 -1 -2 -3 -4 -5 -5 -5 -6 -6 -7 -7 -6 -6 -7 -7 -8 -9 -10 -11 -12 -13 -13 -13 -13 -13 -13 -15 -18 -17 -17 -16 -15 -14 -13 -13 -14 -13 -13
-1 -1 -0 -0 -0 -0 -0 -1 -1 -2 -2 -2 -4 -6 -5 -5 -6 -6 -6 -6 -6 -7 -8 -8 -10 -10 -10 -12 -13 -13 -13 -13 -14 -14 -13 -14 -15 -17 -18 -17 -16 -14 -14 -15 -13 -14 -14
-1 -1 -1 -1 -1 -1 -0 -1 -1 -2 -2 -3 -4 -5 -5 -6 -6 -6 -6 -6 -7 -7 -8 -9 -10 -11 -11 -12 -13 -13 -14 -15 -14 -15 -14 -15 -15 -14 -14 -14 -14 -14 -15 -15 -15 -15 -16
Height
3135 3135 3135 3134 3134 3133 3133 3133 3132 3131 3130 3129 3127 3125 3123 3121 3119 3117 3115 3114 3112 3110 3109 3107 3106 3105 3105 3106 3107 3105 3105 3105 3106 3106 3107 3109 3111 3112 3114 3114 3116 3118 3118 3121 3122 3123 3125
3133 3134 3134 3134 3133 3133 3132 3132 3132 3131 3130 3129 3127 3125 3124 3122 3120 3118 3115 3114 3112 3110 3108 3106 3105 3104 3104 3105 3104 3103 3103 3103 3104 3104 3105 3106 3108 3111 3112 3112 3113 3115 3117 3119 3119 3120 3122
3133 3133 3132 3132 3132 3131 3131 3131 3131 3130 3130 3128 3127 3126 3124 3122 3120 3118 3116 3113 3111 3109 3108 3106 3105 3104 3102 3104 3102 3102 3103 3103 3103 3104 3104 3105 3106 3108 3109 3110 3112 3114 3116 3116 3116 3118 3119
3130 3131 3132 3131 3130 3130 3130 3130 3129 3129 3129 3127 3126 3126 3123 3121 3119 3117 3115 3113 3111 3109 3107 3105 3104 3103 3101 3101 3101 3101 3102 3103 3103 3104 3104 3105 3106 3107 3108 3110 3110 3112 3113 3114 3114 3115 3116
3128 3129 3130 3130 3129 3129 3128 3128 3128 3127 3127 3126 3125 3124 3123 3120 3119 3117 3115 3113 3111 3108 3106 3105 3103 3102 3101 3101 3101 3101 3101 3102 3102 3103 3103 3104 3106 3107 3108 3109 3111 3112 3112 3113 3113 3112 3113
3126 3126 3128 3128 3128 3127 3126 3126 3126 3126 3125 3125 3124 3122 3121 3120 3117 3115 3113 3110 3108 3107 3105 3104 3102 3103 3101 3100 3100 3100 3100 3100 3101 3102 3103 3104 3105 3106 3107 3108 3109 3109 3111 3111 3109 3109 3108
3124 3124 3125 3125 3126 3126 3125 3125 3124 3124 3123 3122 3122 3121 3119 3118 3116 3114 3112 3110 3109 3107 3103 3102 3101 3099 3099 3099 3098 3098 3099 3099 3099 3101 3101 3102 3104 3104 3103 3105 3107 3108 3108 3108 3106 3106 3106
3121 3121 3122 3123 3123 3124 3123 3123 3122 3122 3121 3120 3119 3119 3117 3116 3115 3113 3110 3108 3105 3104 3100 3098 3096 3096 3095 3095 3096 3096 3098 3099 3098 3098 3099 3100 3099 3101 3101 3102 3103 3104 3105 3105 3104 3103 3103
3117 3117 3119 3120 3120 3121 3121 3120 3119 3118 3118 3117 3117 3116 3115 3113 3113 3111 3109 3106 3103 3100 3097 3093 3091 3091 3094 3095 3094 3094 3096 3095 3095 3096 3097 3097 3096 3098 3099 3099 3100 3101 3101 3100 3101 3100 3100
3112 3113 3114 3115 3116 3116 3117 3117 3116 3116 3115 3115 3114 3112 3111 3111 3112 3109 3107 3104 3102 3099 3094 3092 3089 3088 3090 3091 3092 3092 3093 3096 3094 3093 3094 3095 3094 3094 3095 3097 3098 3098 3098 3099 3099 3100 3099
3107 3109 3110 3111 3113 3112 3113 3113 3112 3112 3112 3111 3110 3109 3107 3106 3106 3105 3105 3102 3100 3098 3095 3091 3088 3088 3088 3091 3090 3089 3091 3091 3091 3093 3094 3091 3091 3091 3093 3092 3093 3093 3095 3096 3095 3095 3094
3103 3104 3106 3107 3108 3109 3109 3110 3109 3108 3108 3107 3106 3105 3104 3103 3102 3102 3101 3100 3099 3099 3091 3088 3087 3086 3087 3087 3089 3089 3090 3090 3090 3089 3088 3087 3088 3089 3087 3090 3090 3092 3092 3093 3093 3093 3090
3098 3099 3100 3102 3103 3104 3104 3105 3104 3104 3103 3103 3102 3101 3100 3099 3099 3098 3098 3098 3100 3093 3090 3087 3085 3085 3086 3086 3086 3087 3087 3086 3087 3086 3083 3084 3083 3084 3085 3085 3086 3087 3090 3092 3094 3093 3083
3093 3094 3095 3097 3098 3099 3100 3100 3100 3100 3100 3099 3099 3097 3096 3096 3095 3094 3095 3096 3096 3090 3089 3086 3085 3084 3083 3082 3082 3081 3080 3081 3081 3082 3082 3080 3079 3077 3078 3080 3082 3082 3085 3085 3086 3081 3076
3085 3088 3088 3090 3092 3094 3094 3096 3095 3096 3096 3095 3094 3094 3094 3093 3092 3092 3093 3093 3091 3089 3087 3085 3084 3083 3082 3080 3080 3079 3077 3076 3074 3077 3081 3077 3074 3074 3075 3075 3080 3078 3078 3080 3079 3076 3073
3079 3082 3083 3085 3086 3087 3088 3089 3090 3091 3091 3090 3090 3090 3089 3089 3089 3088 3088 3088 3087 3087 3085 3083 3083 3082 3079 3078 3078 3077 3074 3072 3071 3071 3071 3073 3073 3071 3072 3073 3074 3074 3075 3076 3077 3078 3071
3071 3073 3075 3076 3079 3081 3082 3083 3085 3085 3086 3086 3085 3084 3085 3084 3084 3084 3082 3081 3080 3081 3082 3083 3080 3078 3077 3074 3075 3073 3072 3068 3067 3067 3068 3068 3070 3067 3066 3065 3065 3067 3067 3069 3070 3067 3063
3064 3066 3067 3069 3072 3074 3077 3079 3078 3080 3080 3081 3080 3080 3079 3080 3081 3079 3078 3078 3078 3075 3075 3075 3074 3073 3071 3070 3066 3068 3066 3064 3062 3063 3063 3064 3064 3060 3058 3059 3059 3057 3058 3061 3061 3058 3054
3057 3058 3060 3061 3063 3066 3070 3072 3073 3074 3075 3076 3074 3075 3074 3074 3074 3073 3074 3073 3071 3070 3069 3068 3067 3066 3066 3064 3064 3060 3058 3056 3056 3058 3057 3059 3057 3057 3053 3053 3050 3048 3048 3051 3054 3051 3045
3051 3052 3053 3054 3055 3059 3062 3064 3068 3068 3070 3071 3069 3068 3069 3069 3069 3068 3066 3067 3066 3064 3063 3063 3060 3059 3059 3057 3057 3054 3051 3052 3051 3051 3052 3053 3050 3048 3045 3042 3043 3042 3041 3043 3044 3041 3037
3045 3046 3047 3048 3049 3052 3054 3057 3061 3062 3063 3065 3063 3063 3063 3062 3063 3063 3062 3061 3061 3058 3057 3056 3053 3053 3053 3051 3049 3046 3047 3045 3045 3045 3046 3046 3039 3041 3039 3038 3038 3034 3033 3034 3031 3030 3027
3042 3043 3043 3043 3045 3046 3048 3051 3053 3056 3057 3058 3057 3058 3058 3057 3056 3057 3054 3056 3056 3054 3053 3049 3049 3047 3046 3046 3044 3038 3040 3039 3038 3036 3036 3036 3031 3031 3029 3033 3030 3022 3019 3021 3019 3018 3014
3040 3040 3039 3041 3041 3041 3043 3045 3048 3050 3049 3050 3053 3052 3052 3049 3050 3050 3049 3050 3050 3050 3045 3045 3043 3041 3039 3038 3037 3034 3030 3031 3030 3028 3028 3028 3027 3028 3022 3027 3024 3007 3003 3006 3006 3004 3003
3037 3037 3036 3039 3039 3039 3038 3040 3042 3044 3045 3045 3045 3047 3047 3043 3044 3045 3042 3042 3044 3043 3041 3039 3037 3032 3029 3029 3030 3026 3024 3022 3020 3018 3019 3016 3020 3024 3018 3023 3014 2996 2993 2995 2995 2997 2996
3035 3034 3035 3037 3034 3036 3037 3035 3036 3037 3038 3039 3038 3039 3039 3035 3035 3036 3036 3035 3035 3035 3033 3030 3029 3025 3020 3020 3022 3018 3014 3012 3007 3006 3008 3010 3012 3016 3015 3010 2995 2992 2991 2989 2989 2990 2989
3031 3032 3032 3032 3031 3033 3033 3033 3032 3031 3031 3032 3030 3031 3032 3030 3027 3030 3029 3027 3027 3026 3023 3020 3018 3016 3014 3013 3015 3013 3010 3003 3000 2998 2999 3002 3003 3009 3007 3006 2996 2985 2983 2983 2984 2981 2982
3027 3027 3028 3029 3029 3028 3028 3027 3026 3026 3025 3026 3024 3024 3025 3023 3020 3022 3021 3020 3018 3017 3015 3013 3011 3008 3008 3006 3006 3004 3002 2999 2996 2991 2991 2994 2997 2997 3000 2997 2983 2980 2980 2980 2982 2979 2976
3023 3022 3023 3024 3024 3023 3023 3022 3021 3021 3018 3019 3020 3019 3020 3017 3013 3015 3013 3013 3011 3009 3009 3007 3005 2998 2999 2999 2999 2996 2993 2990 2988 2986 2986 2988 2989 2989 2993 2992 2982 2975 2974 2977 2974 2971 2971
3017 3017 3018 3019 3018 3017 3017 3017 3015 3015 3012 3014 3011 3013 3012 3011 3009 3007 3006 3006 3004 3002 3001 2999 2997 2995 2995 2992 2991 2989 2988 2983 2982 2981 2980 2982 2981 2981 2983 2976 2972 2970 2969 2968 2966 2964 2962
Wind_Speed
5 5 4 3 3 3 4 5 6 8 9 10 10 11 13 14 16 16 16 16 14 11 9 8 7 7 7 8 7 7 7 8 9 11 11 11 12 11 8 14 14 17 21 17 15 17 16
5 5 6 5 4 4 4 5 6 7 9 10 10 12 14 15 16 17 17 16 15 12 12 10 7 7 8 6 8 8 6 5 6 8 9 12 14 13 12 10 13 15 16 18 17 15 15
7 6 7 6 6 5 6 6 6 7 8 10 11 12 13 16 17 17 18 17 15 15 14 9 8 10 7 6 6 3 4 3 4 4 5 8 11 15 14 14 14 10 11 14 16 15 14
8 9 8 7 7 7 7 7 7 8 8 9 10 13 13 16 16 16 17 18 18 15 13 11 11 8 7 6 4 3 4 5 5 4 5 6 8 10 9 9 6 5 6 7 9 9 11
10 9 10 9 8 7 7 8 9 9 10 10 10 11 14 15 16 16 18 20 20 18 15 10 11 9 7 7 5 5 6 5 5 5 5 5 7 8 8 7 5 10 4 11 10 12 11
11 10 10 9 8 8 7 8 9 10 10 11 11 12 14 16 15 17 18 19 19 19 14 12 10 6 6 7 8 8 7 6 5 5 4 5 6 7 8 10 5 9 12 12 11 11 10
11 10 10 10 9 9 9 9 10 10 11 12 13 13 14 17 16 17 19 19 18 15 16 16 13 15 14 12 9 9 8 7 6 5 4 5 6 9 17 17 17 12 13 11 17 17 14
12 11 11 11 11 11 11 12 13 14 14 14 15 14 13 16 17 18 20 19 19 18 20 20 19 15 13 12 11 10 9 8 7 5 6 7 13 13 13 13 14 13 13 13 17 17 16
15 15 15 15 14 14 14 13 14 14 14 13 14 15 16 16 18 19 18 18 20 21 20 20 18 15 13 13 12 12 10 10 8 8 10 12 10 10 13 12 11 11 12 15 15 17 17
20 19 18 17 18 16 14 13 15 15 16 16 16 15 15 19 20 19 17 19 19 19 13 12 8 8 12 13 13 13 11 11 11 11 12 12 16 13 15 15 13 13 16 16 15 12 4
23 21 20 19 18 15 15 17 16 18 16 19 17 18 20 21 20 19 19 18 15 15 4 7 7 7 8 11 6 10 13 13 14 11 11 11 11 14 16 19 16 17 14 12 13 13 15
25 22 22 20 20 18 19 19 18 18 19 19 19 21 21 18 17 17 16 14 13 4 6 5 7 6 7 10 14 10 12 14 16 16 18 21 18 15 21 18 17 11 9 10 10 3 6
28 23 21 20 21 23 22 19 20 19 17 18 18 18 18 17 17 18 15 12 7 6 5 5 4 5 7 9 13 17 18 18 17 10 17 19 20 21 20 18 17 15 8 2 2 2 6
26 30 25 26 24 24 24 22 18 19 21 19 20 16 18 17 15 17 15 10 6 6 12 16 19 14 13 15 17 19 21 23 24 23 13 10 9 15 18 23 13 17 13 6 6 4 2
30 27 28 29 26 24 24 22 24 24 21 19 18 18 18 18 17 13 13 8 6 9 12 13 16 17 16 15 15 15 17 21 24 20 15 9 10 14 15 21 20 12 17 18 7 11 4
35 35 35 33 33 25 22 22 23 22 19 18 19 21 20 18 19 16 16 18 17 19 19 18 17 12 11 21 15 12 11 11 16 20 23 14 10 15 20 20 23 20 15 8 10 3 5
30 32 33 33 30 26 23 24 24 21 21 21 22 22 24 20 18 19 20 21 23 19 19 17 21 21 23 22 22 19 12 18 21 18 16 27 21 11 16 16 23 28 27 16 11 9 5
27 29 29 29 29 31 29 26 20 28 26 24 22 27 21 16 16 20 22 23 22 22 23 23 25 28 29 27 23 19 23 26 14 13 15 21 13 15 22 22 22 26 28 31 13 9 12
22 23 25 26 28 30 28 33 23 25 19 21 27 27 20 16 18 21 24 25 25 25 21 22 22 26 29 27 17 13 24 28 30 25 16 16 15 7 10 17 23 28 34 32 33 27 17
18 20 21 24 25 27 31 34 22 32 24 29 29 23 19 23 23 24 21 23 25 26 23 22 25 27 27 29 27 19 23 19 20 21 24 22 28 24 19 16 12 17 24 28 37 22 26
14 15 17 20 22 26 28 29 32 29 28 28 23 29 26 22 22 20 28 26 28 30 29 25 29 28 25 28 28 31 32 34 33 29 25 24 34 36 37 38 41 39 34 28 35 41 36
12 12 13 15 18 21 24 26 27 25 31 31 29 26 27 28 29 24 27 27 30 30 29 29 27 26 28 31 30 35 32 30 30 28 28 33 31 32 38 37 37 44 45 38 40 43 49
9 8 7 7 11 15 19 21 25 24 24 25 24 26 27 27 26 25 31 32 30 28 30 26 29 32 33 33 33 32 34 33 34 29 24 26 27 24 24 24 31 33 40 38 41 44 45
9 8 6 6 7 8 12 18 26 30 34 34 34 24 27 30 29 32 32 37 34 29 32 36 37 36 36 32 31 30 31 33 34 34 32 29 23 23 17 17 9 18 14 17 24 24 26
12 9 8 7 6 7 8 9 13 21 29 35 34 35 43 45 42 39 27 23 27 31 33 37 37 35 35 34 30 22 23 27 32 34 32 29 28 20 11 17 30 35 31 33 28 26 20
14 13 12 10 7 7 8 10 12 15 20 28 34 35 31 32 39 29 29 37 39 38 37 39 36 37 34 29 25 14 11 11 7 8 24 33 32 28 17 6 7 2 3 8 15 24 30
15 14 13 13 12 11 10 11 13 16 19 22 25 25 27 33 39 39 40 39 34 36 37 36 33 31 28 28 25 22 19 16 10 9 10 25 29 36 32 17 18 23 29 29 14 20 17
17 15 15 14 15 15 14 14 15 17 22 22 22 21 30 32 36 35 34 35 33 32 33 34 30 27 24 23 18 18 17 17 17 20 13 13 14 17 22 13 16 20 18 17 18 20 26
19 19 18 18 18 19 18 18 18 19 25 20 23 20 24 31 35 36 34 34 35 34 32 32 32 33 20 15 14 12 14 13 14 8 15 19 26 17 16 12 18 19 22 25 30 36 36
Wind_Direction
292 306 321 335 347 354 355 357 360 359 1 6 10 8 7 7 3 6 8 5 1 2 356 349 331 315 305 298 288 285 276 267 255 238 218 208 196 193 192 220 220 211 227 235 229 237 241
273 280 293 310 319 326 331 338 339 342 347 351 354 355 356 358 359 359 0 0 0 358 349 341 335 324 308 291 297 291 279 260 239 225 202 198 196 188 202 220 207 223 230 232 240 244 247
279 277 274 280 291 302 310 315 322 328 333 337 339 345 351 351 353 354 355 355 355 351 351 348 341 327 316 310 295 263 263 226 193 181 190 201 200 193 209 220 232 239 226 224 234 244 248
269 278 280 282 284 290 301 305 311 314 318 321 327 331 338 345 347 350 350 350 348 345 342 335 332 324 306 314 300 256 213 243 263 242 213 202 208 215 205 215 194 192 223 224 242 245 244
264 271 277 282 288 291 297 304 309 310 309 311 317 323 327 335 338 343 344 343 340 336 331 320 318 310 294 300 272 253 239 251 253 259 246 206 200 216 209 194 177 199 269 218 259 260 244
261 265 272 278 283 290 295 300 305 307 306 306 310 317 322 328 328 333 339 339 334 331 325 319 307 294 292 285 273 249 246 248 249 242 221 204 198 205 195 182 193 219 206 201 250 251 250
260 266 268 274 283 290 296 303 306 304 304 304 305 310 317 322 322 328 333 338 333 332 325 311 293 289 279 278 257 248 247 245 240 237 213 201 184 189 213 213 216 213 203 223 235 259 268
254 262 267 272 278 281 287 296 300 303 304 304 304 306 311 316 318 321 327 331 332 326 319 306 295 278 266 255 250 243 239 240 237 234 234 208 219 231 236 223 221 227 233 233 254 267 274
256 263 266 270 276 281 282 290 301 299 300 301 301 305 309 310 313 314 321 326 329 326 316 300 286 271 258 246 248 241 234 240 242 240 230 218 245 239 230 223 224 232 225 236 248 273 279
259 261 262 263 272 268 275 280 292 296 298 301 300 300 309 309 311 308 316 321 328 326 311 297 295 254 244 243 249 235 237 244 249 245 243 245 245 241 232 232 229 235 242 248 261 279 295
259 262 261 265 269 269 268 276 283 295 293 294 295 296 301 299 307 312 308 321 326 325 327 291 287 280 263 226 239 222 232 239 250 253 244 243 244 235 230 231 229 236 248 256 271 275 285
261 254 263 263 268 278 271 281 280 289 292 289 290 291 304 295 304 308 318 317 322 305 252 270 294 285 264 249 242 256 250 252 262 256 250 251 255 246 235 236 236 240 247 275 294 283 260
252 259 255 266 273 274 278 280 282 280 285 290 291 301 290 290 300 301 307 317 309 233 286 275 322 310 289 273 262 262 263 262 254 249 250 250 251 252 244 240 235 231 217 154 273 208 235
257 246 268 264 272 277 274 282 271 283 284 287 294 306 300 295 297 303 304 300 251 264 261 287 298 294 277 283 272 265 262 262 255 250 252 253 251 242 238 228 226 220 197 211 225 213 223
257 254 261 267 262 268 266 265 271 281 274 286 287 293 300 286 290 298 286 295 254 270 278 286 294 296 282 282 266 275 277 266 261 249 228 234 240 245 237 222 215 207 215 225 257 288 274
255 256 259 262 265 267 264 264 270 273 284 278 287 290 289 288 287 275 270 281 275 282 278 282 284 273 276 285 285 281 277 267 264 257 240 239 260 246 241 238 224 217 207 202 200 238 252
254 256 259 258 252 247 257 265 268 264 279 282 281 285 289 285 285 278 274 281 294 293 287 287 280 269 268 269 273 269 257 267 269 265 250 236 241 241 237 235 236 225 222 216 215 224 205
257 256 254 255 251 240 249 254 252 259 266 273 287 285 282 269 278 278 283 289 291 291 289 284 283 279 275 274 273 264 255 255 259 267 255 241 242 249 259 257 247 238 236 235 218 227 227
255 256 256 253 253 249 239 247 256 262 271 284 268 278 270 278 275 283 294 288 283 291 291 285 283 282 285 275 264 260 257 262 264 258 253 242 238 247 263 253 242 236 239 239 231 242 232
257 258 256 253 251 246 239 236 243 258 271 278 273 275 261 269 285 283 291 297 284 283 289 293 291 295 289 283 276 265 260 268 262 254 251 246 239 232 245 261 269 252 262 250 235 231 245
262 264 262 256 249 245 245 248 237 249 261 261 272 278 266 268 277 287 292 282 280 291 287 289 294 297 292 281 281 272 272 272 265 260 251 245 250 251 257 264 267 269 269 255 239 253 239
266 270 268 262 253 246 240 239 237 244 248 267 265 274 275 276 278 290 282 294 294 286 287 288 295 299 292 284 282 277 276 274 267 263 257 249 254 260 265 265 267 271 267 262 262 261 258
264 279 289 281 265 257 250 233 235 240 253 250 261 269 281 278 279 281 294 303 297 289 290 291 301 298 297 291 282 278 276 272 268 264 257 253 252 256 263 267 277 275 265 265 268 268 268
255 256 267 297 304 288 272 252 252 244 250 258 266 268 268 279 281 288 291 291 289 291 289 292 291 289 293 286 280 275 270 268 262 261 256 245 242 244 267 274 255 261 268 256 257 266 272
253 259 261 274 297 299 290 283 268 258 252 256 253 266 268 278 287 295 287 284 292 295 291 288 287 286 283 281 281 281 273 268 263 255 247 247 242 237 234 223 264 269 270 275 272 274 274
255 258 263 269 271 289 288 285 289 280 267 261 258 260 270 272 279 285 285 293 295 296 291 288 285 282 282 278 269 254 250 254 255 246 233 231 229 224 232 231 245 203 259 267 275 281 280
256 258 261 265 271 277 289 293 292 289 278 267 269 264 272 276 274 279 283 292 294 292 289 290 289 285 279 268 253 247 250 235 237 230 215 214 223 225 231 246 264 259 267 272 270 282 285
257 263 265 269 274 279 287 296 295 290 286 277 271 272 276 285 284 284 287 283 287 288 287 290 289 280 267 248 244 246 239 240 241 245 250 235 222 220 222 235 264 264 261 258 284 292 293
254 261 268 273 277 283 287 290 294 287 286 283 273 265 269 271 277 280 282 287 287 287 286 285 276 277 271 256 245 246 241 241 238 248 247 244 233 248 227 243 266 277 278 280 288 291 291